Time,TemperatureF,DewpointF,PressureIn,WindDirection,WindDirectionDegrees,WindSpeedMPH,WindSpeedGustMPH,Humidity,HourlyPrecipIn,Conditions,Clouds,dailyrainin,SoftwareType,DateUTC
2013-10-29 00:06:00,50.0,49.7,30.10,SE,135,0.0,-999.0,99,-99.99,,,0.00,Acu-Link.com,2013-10-29 04:06:00,
2013-10-29 00:21:00,49.3,49.0,30.10,ESE,112,0.0,-999.0,99,-99.99,,,0.00,Acu-Link.com,2013-10-29 04:21:00,
2013-10-29 00:36:00,49.3,49.0,30.10,NNE,22,0.0,-999.0,99,-99.99,,,0.00,Acu-Link.com,2013-10-29 04:36:00,
2013-10-29 00:51:00,48.9,48.6,30.09,NNE,22,0.0,-999.0,99,-99.99,,,0.00,Acu-Link.com,2013-10-29 04:51:00,
2013-10-29 01:07:00,48.6,48.3,30.09,SSE,157,0.0,-999.0,99,-99.99,,,0.00,Acu-Link.com,2013-10-29 05:07:00,
2013-10-29 01:22:00,48.4,48.1,30.10,ENE,67,0.0,-999.0,99,-99.99,,,0.00,Acu-Link.com,2013-10-29 05:22:00,
2013-10-29 01:37:00,48.9,48.6,30.09,NE,45,0.0,-999.0,99,-99.99,,,0.00,Acu-Link.com,2013-10-29 05:37:00,
2013-10-29 01:52:00,49.1,48.8,30.10,WSW,247,0.0,-999.0,99,-99.99,,,0.00,Acu-Link.com,2013-10-29 05:52:00,
2013-10-29 02:07:00,48.7,48.4,30.10,NE,45,0.0,-999.0,99,-99.99,,,0.00,Acu-Link.com,2013-10-29 06:07:00,
2013-10-29 02:22:00,48.4,48.1,30.10,NW,315,0.0,-999.0,99,-99.99,,,0.00,Acu-Link.com,2013-10-29 06:22:00,
2013-10-29 02:37:00,48.7,48.4,30.11,East,90,0.0,-999.0,99,-99.99,,,0.00,Acu-Link.com,2013-10-29 06:37:00,
2013-10-29 02:53:00,48.9,48.6,30.12,ENE,67,0.0,-999.0,99,-99.99,,,0.00,Acu-Link.com,2013-10-29 06:53:00,
2013-10-29 03:08:00,49.1,48.8,30.12,West,270,0.0,-999.0,99,-99.99,,,0.00,Acu-Link.com,2013-10-29 07:08:00,
2013-10-29 03:23:00,49.3,49.0,30.11,West,270,0.0,-999.0,99,-99.99,,,0.00,Acu-Link.com,2013-10-29 07:23:00,
2013-10-29 03:38:00,49.6,49.3,30.11,South,180,0.0,-999.0,99,-99.99,,,0.00,Acu-Link.com,2013-10-29 07:38:00,
2013-10-29 03:53:00,49.3,49.0,30.12,SW,225,0.0,-999.0,99,-99.99,,,0.00,Acu-Link.com,2013-10-29 07:53:00,
2013-10-29 04:08:00,48.9,48.6,30.13,ESE,112,0.0,-999.0,99,-99.99,,,0.00,Acu-Link.com,2013-10-29 08:08:00,
2013-10-29 04:24:00,48.9,48.6,30.12,ESE,112,0.0,-999.0,99,-99.99,,,0.00,Acu-Link.com,2013-10-29 08:24:00,
2013-10-29 04:39:00,49.1,48.8,30.12,East,90,0.0,-999.0,99,-99.99,,,0.00,Acu-Link.com,2013-10-29 08:39:00,
2013-10-29 04:54:00,49.1,48.8,30.12,SSW,202,0.0,-999.0,99,-99.99,,,0.00,Acu-Link.com,2013-10-29 08:54:00,
2013-10-29 05:09:00,49.1,48.8,30.12,ESE,112,0.0,-999.0,99,-99.99,,,0.00,Acu-Link.com,2013-10-29 09:09:00,
2013-10-29 05:24:00,49.5,49.2,30.12,West,270,0.0,-999.0,99,-99.99,,,0.00,Acu-Link.com,2013-10-29 09:24:00,
2013-10-29 05:39:00,49.8,49.5,30.13,East,90,0.0,-999.0,99,-99.99,,,0.00,Acu-Link.com,2013-10-29 09:39:00,
2013-10-29 05:54:00,49.8,49.5,30.14,ENE,67,0.0,-999.0,99,-99.99,,,0.00,Acu-Link.com,2013-10-29 09:54:00,
2013-10-29 06:10:00,50.0,49.7,30.14,ENE,67,0.0,-999.0,99,-99.99,,,0.00,Acu-Link.com,2013-10-29 10:10:00,
2013-10-29 06:25:00,50.0,49.7,30.14,WNW,292,0.0,-999.0,99,-99.99,,,0.00,Acu-Link.com,2013-10-29 10:25:00,
2013-10-29 06:40:00,50.0,49.7,30.14,SSE,157,0.0,-999.0,99,-99.99,,,0.00,Acu-Link.com,2013-10-29 10:40:00,
2013-10-29 06:55:00,50.0,49.7,30.15,SW,225,0.0,-999.0,99,-99.99,,,0.00,Acu-Link.com,2013-10-29 10:55:00,
2013-10-29 07:10:00,49.8,49.5,30.15,South,180,0.0,-999.0,99,-99.99,,,0.00,Acu-Link.com,2013-10-29 11:10:00,
2013-10-29 07:25:00,49.6,49.3,30.15,East,90,0.0,-999.0,99,-99.99,,,0.00,Acu-Link.com,2013-10-29 11:25:00,
2013-10-29 07:41:00,49.5,49.2,30.15,SSW,202,0.0,-999.0,99,-99.99,,,0.00,Acu-Link.com,2013-10-29 11:41:00,
2013-10-29 07:56:00,49.3,49.0,30.15,East,90,0.0,-999.0,99,-99.99,,,0.00,Acu-Link.com,2013-10-29 11:56:00,
2013-10-29 08:11:00,49.1,48.8,30.16,NE,45,0.0,-999.0,99,-99.99,,,0.00,Acu-Link.com,2013-10-29 12:11:00,
2013-10-29 08:26:00,49.3,49.0,30.16,ESE,112,0.0,-999.0,99,-99.99,,,0.00,Acu-Link.com,2013-10-29 12:26:00,
2013-10-29 08:41:00,49.8,49.5,30.16,East,90,0.0,-999.0,99,-99.99,,,0.00,Acu-Link.com,2013-10-29 12:41:00,
2013-10-29 08:56:00,50.2,49.9,30.16,SSE,157,0.0,-999.0,99,-99.99,,,0.00,Acu-Link.com,2013-10-29 12:56:00,
2013-10-29 09:11:00,50.4,50.1,30.16,East,90,0.0,-999.0,99,-99.99,,,0.00,Acu-Link.com,2013-10-29 13:11:00,
2013-10-29 09:26:00,53.1,52.8,30.16,ESE,112,0.0,-999.0,99,-99.99,,,0.00,Acu-Link.com,2013-10-29 13:26:00,
2013-10-29 09:41:00,57.4,57.1,30.16,East,90,0.0,-999.0,99,-99.99,,,0.00,Acu-Link.com,2013-10-29 13:41:00,
2013-10-29 09:57:00,58.3,56.9,30.16,NW,315,0.0,-999.0,95,-99.99,,,0.00,Acu-Link.com,2013-10-29 13:57:00,
2013-10-29 10:12:00,58.6,55.7,30.16,SSE,157,1.1,-999.0,90,-99.99,,,0.00,Acu-Link.com,2013-10-29 14:12:00,
2013-10-29 10:27:00,60.3,56.7,30.16,SSE,157,0.0,-999.0,88,-99.99,,,0.00,Acu-Link.com,2013-10-29 14:27:00,
2013-10-29 10:42:00,61.2,57.6,30.17,SSW,202,0.0,-999.0,88,-99.99,,,0.00,Acu-Link.com,2013-10-29 14:42:00,
2013-10-29 10:57:00,63.7,58.1,30.17,SE,135,0.0,-999.0,82,-99.99,,,0.00,Acu-Link.com,2013-10-29 14:57:00,
2013-10-29 11:12:00,67.6,57.9,30.17,West,270,0.0,-999.0,71,-99.99,,,0.00,Acu-Link.com,2013-10-29 15:12:00,
2013-10-29 11:27:00,62.2,56.6,30.17,ESE,112,0.0,-999.0,82,-99.99,,,0.00,Acu-Link.com,2013-10-29 15:27:00,
2013-10-29 11:43:00,63.3,57.4,30.17,NNW,337,0.0,-999.0,81,-99.99,,,0.00,Acu-Link.com,2013-10-29 15:43:00,
2013-10-29 11:58:00,64.8,57.8,30.17,NW,315,0.0,-999.0,78,-99.99,,,0.00,Acu-Link.com,2013-10-29 15:58:00,
2013-10-29 12:13:00,64.9,58.2,30.16,ENE,67,2.2,-999.0,79,-99.99,,,0.00,Acu-Link.com,2013-10-29 16:13:00,
2013-10-29 12:28:00,65.8,57.6,30.16,SW,225,0.0,-999.0,75,-99.99,,,0.00,Acu-Link.com,2013-10-29 16:28:00,
2013-10-29 12:43:00,66.6,58.4,30.16,SW,225,2.7,-999.0,75,-99.99,,,0.00,Acu-Link.com,2013-10-29 16:43:00,
2013-10-29 12:58:00,68.2,58.4,30.15,SSE,157,0.0,-999.0,71,-99.99,,,0.00,Acu-Link.com,2013-10-29 16:58:00,
2013-10-29 13:14:00,69.8,58.8,30.13,WSW,247,2.7,-999.0,68,-99.99,,,0.00,Acu-Link.com,2013-10-29 17:14:00,
2013-10-29 13:29:00,68.5,58.3,30.13,SW,225,0.0,-999.0,70,-99.99,,,0.00,Acu-Link.com,2013-10-29 17:29:00,
2013-10-29 13:44:00,71.8,59.8,30.12,WNW,292,3.7,-999.0,66,-99.99,,,0.00,Acu-Link.com,2013-10-29 17:44:00,
2013-10-29 13:59:00,70.5,58.6,30.11,NE,45,3.2,-999.0,66,-99.99,,,0.00,Acu-Link.com,2013-10-29 17:59:00,
2013-10-29 14:14:00,72.7,59.8,30.09,West,270,4.2,-999.0,64,-99.99,,,0.00,Acu-Link.com,2013-10-29 18:14:00,
2013-10-29 14:29:00,73.9,59.6,30.08,South,180,3.7,-999.0,61,-99.99,,,0.00,Acu-Link.com,2013-10-29 18:29:00,
2013-10-29 14:44:00,74.3,59.5,30.07,WSW,247,3.7,-999.0,60,-99.99,,,0.00,Acu-Link.com,2013-10-29 18:44:00,
2013-10-29 14:59:00,74.7,59.4,30.05,ESE,112,2.2,-999.0,59,-99.99,,,0.00,Acu-Link.com,2013-10-29 18:59:00,
2013-10-29 15:14:00,74.7,59.4,30.05,SSW,202,2.7,-999.0,59,-99.99,,,0.00,Acu-Link.com,2013-10-29 19:14:00,
2013-10-29 15:30:00,72.0,59.1,30.05,SE,135,0.0,-999.0,64,-99.99,,,0.00,Acu-Link.com,2013-10-29 19:30:00,
2013-10-29 15:45:00,73.9,58.7,30.05,East,90,2.2,-999.0,59,-99.99,,,0.00,Acu-Link.com,2013-10-29 19:45:00,
2013-10-29 16:00:00,75.2,58.9,30.06,SSW,202,0.0,-999.0,57,-99.99,,,0.00,Acu-Link.com,2013-10-29 20:00:00,
2013-10-29 16:15:00,73.0,58.3,30.06,SW,225,2.7,-999.0,60,-99.99,,,0.00,Acu-Link.com,2013-10-29 20:15:00,
2013-10-29 16:30:00,72.5,58.7,30.07,SSW,202,0.0,-999.0,62,-99.99,,,0.00,Acu-Link.com,2013-10-29 20:30:00,
2013-10-29 16:45:00,73.4,59.1,30.06,SW,225,2.2,-999.0,61,-99.99,,,0.00,Acu-Link.com,2013-10-29 20:45:00,
2013-10-29 17:00:00,73.2,58.9,30.06,ESE,112,2.2,-999.0,61,-99.99,,,0.00,Acu-Link.com,2013-10-29 21:00:00,
2013-10-29 17:15:00,73.2,59.4,30.07,WSW,247,0.0,-999.0,62,-99.99,,,0.00,Acu-Link.com,2013-10-29 21:15:00,
2013-10-29 17:30:00,72.5,59.2,30.07,SW,225,0.0,-999.0,63,-99.99,,,0.00,Acu-Link.com,2013-10-29 21:30:00,
2013-10-29 17:46:00,72.7,59.4,30.07,WNW,292,0.0,-999.0,63,-99.99,,,0.00,Acu-Link.com,2013-10-29 21:46:00,
2013-10-29 18:01:00,72.5,60.1,30.07,ESE,112,0.0,-999.0,65,-99.99,,,0.00,Acu-Link.com,2013-10-29 22:01:00,
2013-10-29 18:16:00,70.3,60.8,30.06,ESE,112,0.0,-999.0,72,-99.99,,,0.00,Acu-Link.com,2013-10-29 22:16:00,
2013-10-29 18:31:00,68.5,61.0,30.06,ESE,112,0.0,-999.0,77,-99.99,,,0.00,Acu-Link.com,2013-10-29 22:31:00,
2013-10-29 18:46:00,65.7,60.7,30.06,East,90,0.0,-999.0,84,-99.99,,,0.00,Acu-Link.com,2013-10-29 22:46:00,
2013-10-29 19:01:00,63.1,59.5,30.06,East,90,0.0,-999.0,88,-99.99,,,0.00,Acu-Link.com,2013-10-29 23:01:00,
2013-10-29 19:16:00,61.2,59.2,30.06,ESE,112,0.0,-999.0,93,-99.99,,,0.00,Acu-Link.com,2013-10-29 23:16:00,
2013-10-29 19:31:00,60.1,58.7,30.06,ESE,112,0.0,-999.0,95,-99.99,,,0.00,Acu-Link.com,2013-10-29 23:31:00,
2013-10-29 19:46:00,59.0,58.7,30.06,WNW,292,0.0,-999.0,99,-99.99,,,0.00,Acu-Link.com,2013-10-29 23:46:00,
2013-10-29 20:01:00,58.1,57.8,30.06,SSW,202,0.0,-999.0,99,-99.99,,,0.00,Acu-Link.com,2013-10-30 00:01:00,
2013-10-29 20:17:00,57.4,57.1,30.06,SSW,202,0.0,-999.0,99,-99.99,,,0.00,Acu-Link.com,2013-10-30 00:17:00,
2013-10-29 20:32:00,56.8,56.5,30.06,SW,225,0.0,-999.0,99,-99.99,,,0.00,Acu-Link.com,2013-10-30 00:32:00,
2013-10-29 20:47:00,56.5,56.2,30.05,SSW,202,0.0,-999.0,99,-99.99,,,0.00,Acu-Link.com,2013-10-30 00:47:00,
2013-10-29 21:02:00,56.1,55.8,30.06,SSW,202,0.0,-999.0,99,-99.99,,,0.00,Acu-Link.com,2013-10-30 01:02:00,
2013-10-29 21:17:00,55.9,55.6,30.06,SSE,157,0.0,-999.0,99,-99.99,,,0.00,Acu-Link.com,2013-10-30 01:17:00,
2013-10-29 21:32:00,55.8,55.5,30.06,SSE,157,0.0,-999.0,99,-99.99,,,0.00,Acu-Link.com,2013-10-30 01:32:00,
2013-10-29 21:47:00,55.8,55.5,30.06,SSE,157,0.0,-999.0,99,-99.99,,,0.00,Acu-Link.com,2013-10-30 01:47:00,
2013-10-29 22:02:00,55.8,55.5,30.07,SSE,157,0.0,-999.0,99,-99.99,,,0.00,Acu-Link.com,2013-10-30 02:02:00,
2013-10-29 22:17:00,55.4,55.1,30.08,SSE,157,0.0,-999.0,99,-99.99,,,0.00,Acu-Link.com,2013-10-30 02:17:00,
2013-10-29 22:33:00,54.9,54.6,30.08,SSE,157,0.0,-999.0,99,-99.99,,,0.00,Acu-Link.com,2013-10-30 02:33:00,
2013-10-29 22:48:00,54.9,54.6,30.08,SSE,157,0.0,-999.0,99,-99.99,,,0.00,Acu-Link.com,2013-10-30 02:48:00,
2013-10-29 23:03:00,54.9,54.6,30.08,South,180,0.0,-999.0,99,-99.99,,,0.00,Acu-Link.com,2013-10-30 03:03:00,
2013-10-29 23:18:00,54.7,54.4,30.08,SSW,202,0.0,-999.0,99,-99.99,,,0.00,Acu-Link.com,2013-10-30 03:18:00,
2013-10-29 23:33:00,54.0,53.7,30.08,South,180,0.0,-999.0,99,-99.99,,,0.00,Acu-Link.com,2013-10-30 03:33:00,
2013-10-29 23:48:00,53.6,53.3,30.08,SSE,157,0.0,-999.0,99,-99.99,,,0.00,Acu-Link.com,2013-10-30 03:48:00,